TimeEDT,TemperatureF,Dew PointF,Humidity,Sea Level PressureIn,VisibilityMPH,Wind Direction,Wind SpeedMPH,Gust SpeedMPH,PrecipitationIn,Events,Conditions,WindDirDegrees,DateUTC
12:53 AM,77.0,75.0,94,30.05,10.0,Calm,Calm,-,N/A,,Clear,0,2013-08-03 04:53:00
1:53 AM,75.9,73.9,94,30.05,10.0,Calm,Calm,-,N/A,,Clear,0,2013-08-03 05:53:00
2:53 AM,75.9,73.9,94,30.04,10.0,SSE,3.5,-,N/A,,Clear,160,2013-08-03 06:53:00
3:51 AM,75.2,73.4,94,30.04,10.0,Calm,Calm,-,N/A,,Mostly Cloudy,0,2013-08-03 07:51:00
3:53 AM,75.9,73.9,94,30.03,10.0,Calm,Calm,-,N/A,,Mostly Cloudy,0,2013-08-03 07:53:00
4:07 AM,75.2,73.4,94,30.03,10.0,Calm,Calm,-,N/A,,Scattered Clouds,0,2013-08-03 08:07:00
4:53 AM,75.0,73.0,94,30.02,10.0,Calm,Calm,-,N/A,,Partly Cloudy,0,2013-08-03 08:53:00
5:53 AM,73.9,73.0,97,30.04,10.0,Calm,Calm,-,N/A,,Clear,0,2013-08-03 09:53:00
6:53 AM,73.9,73.0,97,30.05,10.0,Calm,Calm,-,N/A,,Clear,0,2013-08-03 10:53:00
7:53 AM,75.9,73.9,94,30.07,10.0,Calm,Calm,-,N/A,,Clear,0,2013-08-03 11:53:00
8:53 AM,80.1,75.9,87,30.08,10.0,Calm,Calm,-,N/A,,Clear,0,2013-08-03 12:53:00
9:53 AM,86.0,75.9,72,30.08,10.0,Variable,3.5,-,N/A,,Clear,0,2013-08-03 13:53:00
10:53 AM,86.0,73.9,67,30.08,10.0,WSW,8.1,-,N/A,,Mostly Cloudy,250,2013-08-03 14:53:00
11:53 AM,89.1,72.0,57,30.09,10.0,WSW,9.2,-,N/A,,Clear,250,2013-08-03 15:53:00
12:53 PM,90.0,71.1,54,30.09,10.0,West,10.4,-,N/A,,Clear,270,2013-08-03 16:53:00
1:53 PM,91.0,72.0,53,30.08,10.0,West,15.0,20.7,N/A,,Partly Cloudy,270,2013-08-03 17:53:00
2:53 PM,90.0,73.0,57,30.06,10.0,WSW,15.0,19.6,N/A,,Clear,240,2013-08-03 18:53:00
3:53 PM,91.0,72.0,53,30.06,10.0,West,12.7,19.6,N/A,,Clear,270,2013-08-03 19:53:00
4:53 PM,89.1,73.9,61,30.05,10.0,West,12.7,-,N/A,,Partly Cloudy,270,2013-08-03 20:53:00
5:53 PM,88.0,73.9,63,30.06,10.0,WSW,12.7,-,N/A,,Clear,250,2013-08-03 21:53:00
6:53 PM,86.0,73.9,67,30.06,10.0,Variable,3.5,-,N/A,,Clear,0,2013-08-03 22:53:00
7:53 PM,84.0,75.0,74,30.07,10.0,North,-9999.0,-,N/A,,Partly Cloudy,0,2013-08-03 23:53:00
8:53 PM,81.0,75.9,85,30.09,10.0,SE,3.5,-,N/A,,Clear,140,2013-08-04 00:53:00
9:53 PM,79.0,75.0,88,30.10,10.0,SSE,3.5,-,N/A,,Partly Cloudy,150,2013-08-04 01:53:00
10:53 PM,78.1,75.0,90,30.11,10.0,South,3.5,-,N/A,,Partly Cloudy,170,2013-08-04 02:53:00
11:53 PM,77.0,75.0,94,30.11,10.0,Calm,Calm,-,0.00,,Clear,0,2013-08-04 03:53:00